THOR ABLESTAR DEB, 5746

Orbit data source: Space-Track

THOR ABLESTAR DEB, 5746 is space debris in LEO originally from a launch on Thu, 29 Jun 1961 UTC launched from the Air Force Eastern Test Range (AFETR). Debris objects in space refer to the collection of defunct objects orbiting the Earth. Examples of debris include non-operational satellites, rocket bodies, and fragments generated from explosions, collisions, or faulty payload assembly.

Loading next visibility...
Identifier
5746, 1961-015JV
Orbit
LEO
Country
Flag of USUS
Related business
Manufacturer
Unknown
Mission
Spacecraft
Bus & Motor
Unknown
Mass
Unknown
Launch date (UTC)
1961-06-29 (65 years ago)
Launch vehicle
Unknown
Launch site
Air Force Eastern Test Range (AFETR)
Object type
Payload
Rocket body
Debris
Shape & HBR
Unknown shape, 0.1 m
Radar Cross Section
Small (<0.1 m²)

Expand to show TLE details & history
Last TLE update: 3 days ago

TLE from 3 days ago
0 THOR ABLESTAR DEB
1 05746U 61015JV  26170.98112066  .00001279  00000-0  64681-3 0  9991
2 05746  66.3018 168.1022 0036697  18.5123 341.7292 14.19176758282727
Epoch: 2026-06-19T23:32Z
TLE epoch observation values (Epoch: 2026-06-19T23:32:48.825Z)
Latitude
0.00003°
Longitude
-93.30353°
Altitude
805.099 km
Speed
7.464 km/s
True Right ascension
11h 12m 24s
True Declination
0° 00' 00"
Sunlit
Object was in daylight at epoch
Visualization orbit readout
Latitude
Unknown
Longitude
Unknown
Altitude
Unknown
Speed
Unknown
Apparent Right ascension
Unknown
Apparent Declination
Unknown
Sunlit
N/A
Visualization observer readout
Local Sidereal Time
00:50:08
Azimuth
Unknown
Elevation
Unknown
Doppler factor
Unknown
Orbital elements
Apogee altitude
853.007 km
Perigee altitude
800.129 km
Semi-major axis
7,204.705 km
Eccentricity
0.00367
Inclination
66.3018°
RAAN
168.1022°
Arg. of periapsis
18.5123°
True anomaly
341.59679°
Mean anomaly
341.7292°
Eccentric anomaly
341.66305°
Mean motion
3.54911 °/min
Orbital period
101.43 mins
BSTAR
0.00064681

Documentation

Showing up to 5 results
|